Regional Weather Roundup
Issued by NWS

Home | Current Version | Previous Version | Text Only | Print | Product List | Glossary On
Versions: 1 2 3 4 5 6 7 8 9 10 11 12 13 14 15 16 17 18 19 20 21 22 23 24 25 26 27 28 29 30 31 32 33 34 35 36 37 38 39 40 41 42 43 44 45 46 47 48 49 50
236
ASUS44 KJAN 241903
RWRMS

MISSISSIPPI HOURLY WEATHER ROUNDUP
NATIONAL WEATHER SERVICE JACKSON MS
200 PM CDT THU JUL 24 2014

NOTE: "FAIR: INDICATES FEW OR NO CLOUDS BELOW 12,000 FEET WITH NO
SIGNIFICANT WEATHER AND/OR OBSTRUCTIONS TO VISIBILITY.

MSZ001>002-007>008-010>013-018>021-025>028-034>036-242000-
NORTHWEST MISSISSIPPI

CITY           SKY/WX    TMP DP  RH WIND       PRES   REMARKS
CLARKSDALE     PTSUNNY   82  72  69 N13       30.05S
CLEVELAND      CLOUDY    83  76  80 N10       30.02S HX  91
GREENWOOD      MOSUNNY   86  72  62 NW6       30.00F HX  92
GREENVILLE       N/A     88  73  61 MISG      30.01F HX  95
GRENADA        FAIR      86  70  58 NW5       30.01S HX  90
OLIVE BRANCH   MOSUNNY   81  57  44 N10       30.04F
OXFORD         FAIR      81  68  65 N6        30.04F
TUNICA         CLEAR     81  61  50 N8        30.05F
$$

MSZ003>006-009-014>017-022>024-029>033-037>039-242000-
NORTHEAST MISSISSIPPI

CITY           SKY/WX    TMP DP  RH WIND       PRES   REMARKS
BELMONT        FAIR      81  67  61 W6        30.02S
COLUMBUS AFB   MOSUNNY   87  70  57 NW9       29.99S HX  92
CORINTH        FAIR      81  63  54 NW6       30.02S
GOLDN TRIANGLE PTSUNNY   90  72  55 N9        29.99F HX  96
STARKVILLE     FAIR      86  70  58 NW6       29.99S HX  90
TUPELO         MOSUNNY   84  70  62 N12G20    30.01S
$$

MSZ040-058-242000-
CENTRAL MISSISSIPPI

CITY           SKY/WX    TMP DP  RH WIND       PRES   REMARKS
JACKSON INTL   PTSUNNY   90  72  55 VRB5      29.99F HX  97
JACKSON HAWKNS MOSUNNY   90  72  55 NW9       29.99F HX  97
MERIDIAN KEY   PTSUNNY   85  72  65 S10       29.98F HX  91
MERIDIAN NAS   MOSUNNY   90  71  53 VRB7      29.97F HX  96
RAYMOND        FAIR      88  82  84 NW9       29.99F HX 108
VICKSBURG      PTSUNNY   90  75  61 CALM      30.00F HX 100
$$

MSZ059>079-242000-
SOUTH MISSISSIPPI

CITY           SKY/WX    TMP DP  RH WIND       PRES   REMARKS
BROOKHAVEN     MOCLDY    88  73  62 CALM      30.02F HX  96
COLUMBIA       FAIR      88  72  58 VRB5      29.98F HX  94
HATTIESBURG    MOSUNNY   89  69  51 SW5       29.99F HX  93
MCCOMB         PTSUNNY   87  69  54 VRB3      30.00F HX  91
NATCHEZ        MOSUNNY   84  73  70 NW5       30.01F HX  91
PINE BELT      SUNNY     88  70  55 W3        30.01F HX  92
$$

MSZ080>082-242000-
COASTAL MISSISSIPPI

CITY           SKY/WX    TMP DP  RH WIND       PRES   REMARKS
BAY ST LOUIS   MOSUNNY  N/A N/A N/A E5        29.98F
BILOXI         MOSUNNY   85  74  69 S7        29.99F HX  93
PASCAGOULA     SUNNY     86  73  65 S10       29.99F HX  93
GULFPORT       MOSUNNY   89  72  56 SE8       29.98F HX  96
$$



USA.gov is the U.S. government's official web portal to all federal, state and local government web resources and services.